Station History

Weather Underground - logo

Station Historical Data
Daily Summary for July 7, 2017 Units:  English    Metric   Both
« Previous Day
Next Day »
Daily Weekly Monthly Yearly Custom
  High: Low: Average:
Temperature: 104.9 °F 72.0 °F 87.8 °F
Dew Point: 71.6 °F 59.1 °F 65.4 °F
Humidity: 76 % 27 % 51 %
Wind Speed: 8.1 mph 0.0 mph 1.6 mph
Wind Gust: 8.1 mph - -
Wind:- - South
Pressure: 29.93 in 29.77 in -
Precipitation: 0.00 in    
Historical Graphs
 
 
Tabular Data for July 7, 2017
Time Temperature Dew Point Pressure Wind Wind Speed Wind Gust Humidity Rainfall Rate (Hourly)
00:03 79.7 °F 67.8 °F 29.89 in Calm     67 % 0.00 in
00:08 79.2 °F 68.1 °F 29.90 in Calm     69 % 0.00 in
00:13 78.8 °F 67.8 °F 29.90 in Calm     69 % 0.00 in
00:18 78.6 °F 68.0 °F 29.89 in Calm     70 % 0.00 in
00:23 78.4 °F 67.8 °F 29.89 in Calm     70 % 0.00 in
00:28 78.2 °F 68.0 °F 29.89 in Calm     71 % 0.00 in
00:33 78.0 °F 67.8 °F 29.89 in Calm     71 % 0.00 in
00:38 77.8 °F 67.6 °F 29.89 in Calm     71 % 0.00 in
00:44 77.6 °F 67.9 °F 29.89 in Calm     72 % 0.00 in
00:49 77.4 °F 67.7 °F 29.89 in Calm     72 % 0.00 in
00:54 77.3 °F 68.0 °F 29.89 in Calm     73 % 0.00 in
00:59 77.0 °F 67.7 °F 29.89 in Calm     73 % 0.00 in
01:04 76.9 °F 68.0 °F 29.89 in Calm     74 % 0.00 in
01:09 76.7 °F 68.6 °F 29.89 in Calm     76 % 0.00 in
01:14 76.4 °F 67.9 °F 29.89 in Calm     75 % 0.00 in
01:19 76.2 °F 68.1 °F 29.89 in Calm     76 % 0.00 in
01:24 76.0 °F 67.9 °F 29.89 in Calm     76 % 0.00 in
01:29 76.0 °F 67.9 °F 29.89 in Calm     76 % 0.00 in
01:34 76.0 °F 67.5 °F 29.89 in Calm     75 % 0.00 in
01:39 76.0 °F 67.5 °F 29.89 in Calm     75 % 0.00 in
01:44 76.0 °F 67.1 °F 29.88 in Calm     74 % 0.00 in
01:49 76.0 °F 67.5 °F 29.88 in Calm     75 % 0.00 in
01:54 75.8 °F 66.9 °F 29.88 in Calm     74 % 0.00 in
01:59 75.7 °F 67.2 °F 29.88 in Calm     75 % 0.00 in
02:04 75.5 °F 66.2 °F 29.88 in Calm     73 % 0.00 in
02:09 75.9 °F 66.2 °F 29.88 in Calm     72 % 0.00 in
02:14 76.0 °F 65.5 °F 29.88 in Calm     70 % 0.00 in
02:19 76.0 °F 65.5 °F 29.88 in Calm     70 % 0.00 in
02:24 75.9 °F 65.8 °F 29.88 in Calm     71 % 0.00 in
02:29 75.8 °F 65.7 °F 29.88 in Calm     71 % 0.00 in
02:34 75.6 °F 65.9 °F 29.88 in Calm     72 % 0.00 in
02:39 75.3 °F 65.6 °F 29.88 in Calm     72 % 0.00 in
02:44 75.1 °F 65.5 °F 29.88 in Calm     72 % 0.00 in
02:49 74.9 °F 65.7 °F 29.88 in Calm     73 % 0.00 in
02:54 74.9 °F 65.3 °F 29.88 in Calm     72 % 0.00 in
02:59 74.8 °F 65.6 °F 29.88 in Calm     73 % 0.00 in
03:04 74.7 °F 65.5 °F 29.88 in Calm     73 % 0.00 in
03:09 74.4 °F 65.6 °F 29.88 in Calm     74 % 0.00 in
03:14 74.0 °F 65.6 °F 29.89 in Calm     75 % 0.00 in
03:19 73.8 °F 65.4 °F 29.89 in Calm     75 % 0.00 in
03:24 73.5 °F 65.1 °F 29.89 in Calm     75 % 0.00 in
03:29 73.4 °F 65.0 °F 29.89 in Calm     75 % 0.00 in
03:34 73.3 °F 64.5 °F 29.89 in Calm     74 % 0.00 in
03:39 73.3 °F 64.5 °F 29.89 in Calm     74 % 0.00 in
03:45 73.3 °F 64.5 °F 29.89 in SE 1.2 mph   74 % 0.00 in
03:50 73.2 °F 64.8 °F 29.89 in SE 1.2 mph   75 % 0.00 in
03:55 73.0 °F 64.6 °F 29.89 in Calm     75 % 0.00 in
04:00 72.9 °F 64.5 °F 29.89 in Calm     75 % 0.00 in
04:05 72.7 °F 64.7 °F 29.89 in Calm     76 % 0.00 in
04:10 72.6 °F 64.6 °F 29.89 in Calm     76 % 0.00 in
04:15 72.5 °F 64.1 °F 29.89 in Calm     75 % 0.00 in
04:20 72.5 °F 64.1 °F 29.89 in Calm     75 % 0.00 in
04:25 72.5 °F 64.1 °F 29.89 in Calm     75 % 0.00 in
04:30 72.4 °F 64.0 °F 29.89 in Calm     75 % 0.00 in
04:35 72.2 °F 63.8 °F 29.90 in Calm     75 % 0.00 in
04:40 72.1 °F 63.7 °F 29.90 in Calm     75 % 0.00 in
04:45 72.0 °F 63.6 °F 29.89 in Calm     75 % 0.00 in
04:50 72.3 °F 63.5 °F 29.89 in Calm     74 % 0.00 in
04:55 72.3 °F 63.5 °F 29.89 in Calm     74 % 0.00 in
05:00 72.6 °F 63.4 °F 29.90 in Calm     73 % 0.00 in
05:05 72.9 °F 63.3 °F 29.90 in Calm     72 % 0.00 in
05:10 73.3 °F 63.3 °F 29.90 in Calm     71 % 0.00 in
05:15 73.2 °F 63.2 °F 29.90 in Calm     71 % 0.00 in
05:20 73.4 °F 62.6 °F 29.90 in Calm     69 % 0.00 in
05:25 73.5 °F 62.7 °F 29.90 in Calm     69 % 0.00 in
05:30 73.4 °F 62.6 °F 29.90 in Calm     69 % 0.00 in
05:35 73.2 °F 62.8 °F 29.90 in Calm     70 % 0.00 in
05:40 73.0 °F 63.0 °F 29.91 in Calm     71 % 0.00 in
05:45 72.8 °F 62.8 °F 29.91 in Calm     71 % 0.00 in
05:50 72.6 °F 63.1 °F 29.91 in Calm     72 % 0.00 in
05:55 72.3 °F 62.8 °F 29.91 in SE 1.2 mph   72 % 0.00 in
06:00 72.2 °F 62.3 °F 29.91 in Calm     71 % 0.00 in
06:05 72.2 °F 62.7 °F 29.91 in Calm     72 % 0.00 in
06:08 72.1 °F 62.6 °F 29.91 in Calm     72 % 0.00 in
06:13 72.0 °F 62.5 °F 29.91 in Calm     72 % 0.00 in
06:18 72.0 °F 62.9 °F 29.91 in Calm     73 % 0.00 in
06:23 72.0 °F 62.9 °F 29.91 in Calm     73 % 0.00 in
06:28 72.0 °F 62.5 °F 29.91 in Calm     72 % 0.00 in
06:33 72.3 °F 62.4 °F 29.91 in Calm     71 % 0.00 in
06:38 72.6 °F 62.3 °F 29.91 in Calm     70 % 0.00 in
06:43 73.0 °F 62.2 °F 29.92 in Calm     69 % 0.00 in
06:48 73.8 °F 62.6 °F 29.92 in SE 1.2 mph 1.2 mph 68 % 0.00 in
06:53 74.8 °F 62.7 °F 29.92 in Calm     66 % 0.00 in
06:58 75.7 °F 63.1 °F 29.92 in SE 1.2 mph 1.2 mph 65 % 0.00 in
07:03 76.5 °F 63.4 °F 29.92 in SE 1.2 mph   64 % 0.00 in
07:08 76.9 °F 63.3 °F 29.92 in SSE 1.2 mph 1.2 mph 63 % 0.00 in
07:13 77.4 °F 62.9 °F 29.92 in SE 1.2 mph   61 % 0.00 in
07:18 77.7 °F 63.2 °F 29.92 in SSE 2.3 mph 2.3 mph 61 % 0.00 in
07:23 78.2 °F 63.6 °F 29.93 in Calm     61 % 0.00 in
07:28 78.5 °F 63.0 °F 29.93 in SE 3.5 mph 3.5 mph 59 % 0.00 in
07:33 78.9 °F 63.8 °F 29.93 in SE 3.5 mph 3.5 mph 60 % 0.00 in
07:38 79.3 °F 63.7 °F 29.93 in SSE 2.3 mph 2.3 mph 59 % 0.00 in
07:43 79.8 °F 63.2 °F 29.93 in SE 3.5 mph 3.5 mph 57 % 0.00 in
07:44 79.8 °F 63.2 °F 29.93 in East 3.5 mph 3.5 mph 57 % 0.00 in
07:49 79.7 °F 62.6 °F 29.92 in SE 1.2 mph 1.2 mph 56 % 0.00 in
07:54 80.0 °F 63.4 °F 29.93 in South 3.5 mph 3.5 mph 57 % 0.00 in
07:59 80.3 °F 63.2 °F 29.93 in ESE 2.3 mph 2.3 mph 56 % 0.00 in
08:04 80.9 °F 63.7 °F 29.93 in SSE 4.0 mph 4.0 mph 56 % 0.00 in
08:09 81.2 °F 63.5 °F 29.93 in SSE 3.5 mph 3.5 mph 55 % 0.00 in
08:14 81.7 °F 64.0 °F 29.93 in ESE 3.5 mph 3.5 mph 55 % 0.00 in
08:19 82.2 °F 63.9 °F 29.93 in SSE 2.3 mph 2.3 mph 54 % 0.00 in
08:20 82.3 °F 64.0 °F 29.93 in South 3.5 mph 3.5 mph 54 % 0.00 in
08:25 82.6 °F 63.7 °F 29.93 in SSE 4.6 mph 4.6 mph 53 % 0.00 in
08:30 83.0 °F 63.6 °F 29.93 in SSW 3.5 mph 3.5 mph 52 % 0.00 in
08:35 83.4 °F 63.9 °F 29.93 in South 3.5 mph 3.5 mph 52 % 0.00 in
08:40 83.8 °F 63.7 °F 29.92 in SSW 2.3 mph 2.3 mph 51 % 0.00 in
08:45 84.2 °F 63.0 °F 29.92 in South 4.6 mph 4.6 mph 49 % 0.00 in
08:50 84.6 °F 63.3 °F 29.92 in ESE 2.3 mph 2.3 mph 49 % 0.00 in
08:55 85.2 °F 62.7 °F 29.92 in SSW 3.5 mph 3.5 mph 47 % 0.00 in
09:00 85.6 °F 62.4 °F 29.92 in SW 3.5 mph 3.5 mph 46 % 0.00 in
09:05 86.1 °F 61.6 °F 29.92 in SSE 4.6 mph 4.6 mph 44 % 0.00 in
09:10 86.5 °F 60.7 °F 29.92 in NE 3.5 mph 3.5 mph 42 % 0.00 in
09:15 86.7 °F 62.2 °F 29.92 in ESE 3.5 mph 3.5 mph 44 % 0.00 in
09:20 87.1 °F 61.2 °F 29.92 in NE 3.5 mph 3.5 mph 42 % 0.00 in
09:25 87.3 °F 61.4 °F 29.92 in ESE 3.5 mph 3.5 mph 42 % 0.00 in
09:30 87.7 °F 62.4 °F 29.92 in SSW 5.8 mph 5.8 mph 43 % 0.00 in
09:35 88.0 °F 60.7 °F 29.92 in NE 3.5 mph 3.5 mph 40 % 0.00 in
09:40 88.1 °F 60.0 °F 29.92 in SE 3.5 mph 3.5 mph 39 % 0.00 in
09:45 88.0 °F 60.7 °F 29.92 in East 6.0 mph 6.0 mph 40 % 0.00 in
09:50 88.0 °F 61.3 °F 29.92 in ENE 4.6 mph 4.6 mph 41 % 0.00 in
09:56 88.2 °F 60.8 °F 29.92 in East 5.8 mph 5.8 mph 40 % 0.00 in
10:00 88.8 °F 61.4 °F 29.92 in SSE 4.6 mph 4.6 mph 40 % 0.00 in
10:06 89.1 °F 60.9 °F 29.92 in ENE 2.3 mph 2.3 mph 39 % 0.00 in
10:11 89.5 °F 61.3 °F 29.92 in SSE 3.5 mph 3.5 mph 39 % 0.00 in
10:16 89.8 °F 60.8 °F 29.92 in ESE 4.6 mph 4.6 mph 38 % 0.00 in
10:21 89.9 °F 61.6 °F 29.91 in SSE 3.5 mph 3.5 mph 39 % 0.00 in
10:26 89.9 °F 60.1 °F 29.91 in ESE 5.8 mph 5.8 mph 37 % 0.00 in
10:31 90.2 °F 63.3 °F 29.91 in SSE 1.2 mph 1.2 mph 41 % 0.00 in
10:36 90.6 °F 62.3 °F 29.91 in SSE 3.5 mph 3.5 mph 39 % 0.00 in
10:41 90.9 °F 61.8 °F 29.91 in SE 3.5 mph 3.5 mph 38 % 0.00 in
10:46 91.0 °F 61.1 °F 29.91 in ESE 8.1 mph 8.1 mph 37 % 0.00 in
10:51 91.0 °F 62.6 °F 29.91 in SSE 3.5 mph 3.5 mph 39 % 0.00 in
10:56 91.3 °F 60.6 °F 29.91 in East 4.6 mph 4.6 mph 36 % 0.00 in
11:01 91.5 °F 63.8 °F 29.91 in East 3.5 mph 3.5 mph 40 % 0.00 in
11:06 91.8 °F 61.0 °F 29.91 in SE 5.8 mph 5.8 mph 36 % 0.00 in
11:11 92.0 °F 61.2 °F 29.91 in East 3.5 mph 3.5 mph 36 % 0.00 in
11:16 92.9 °F 63.6 °F 29.91 in SSE 2.3 mph 2.3 mph 38 % 0.00 in
11:21 93.5 °F 61.7 °F 29.90 in SSE 4.0 mph 4.0 mph 35 % 0.00 in
11:26 93.7 °F 61.1 °F 29.90 in NE 3.5 mph 3.5 mph 34 % 0.00 in
11:31 94.0 °F 62.2 °F 29.90 in East 3.5 mph 3.5 mph 35 % 0.00 in
11:36 94.1 °F 61.4 °F 29.90 in SSE 3.5 mph 3.5 mph 34 % 0.00 in
11:41 94.4 °F 63.3 °F 29.90 in SE 2.3 mph 2.3 mph 36 % 0.00 in
11:46 94.9 °F 61.3 °F 29.89 in SSE 3.5 mph 3.5 mph 33 % 0.00 in
11:51 94.9 °F 60.4 °F 29.89 in SE 3.5 mph 3.5 mph 32 % 0.00 in
11:56 95.4 °F 60.9 °F 29.89 in South 5.0 mph 5.0 mph 32 % 0.00 in
12:01 95.4 °F 59.1 °F 29.89 in East 6.9 mph 6.9 mph 30 % 0.00 in
12:06 95.6 °F 61.0 °F 29.89 in South 3.5 mph 3.5 mph 32 % 0.00 in
12:11 96.1 °F 61.5 °F 29.89 in East 3.0 mph 3.0 mph 32 % 0.00 in
12:16 96.6 °F 62.8 °F 29.89 in SSE 3.5 mph 3.5 mph 33 % 0.00 in
12:21 96.8 °F 63.0 °F 29.88 in North 3.5 mph 3.5 mph 33 % 0.00 in
12:26 97.1 °F 64.1 °F 29.88 in ENE 3.5 mph 3.5 mph 34 % 0.00 in
12:31 97.1 °F 64.1 °F 29.88 in SSE 2.3 mph 2.3 mph 34 % 0.00 in
12:36 97.3 °F 62.5 °F 29.88 in East 4.0 mph 4.0 mph 32 % 0.00 in
12:41 97.3 °F 63.4 °F 29.88 in North 3.0 mph 3.0 mph 33 % 0.00 in
12:46 97.8 °F 63.8 °F 29.87 in SSE 3.5 mph 3.5 mph 33 % 0.00 in
12:51 98.4 °F 63.5 °F 29.87 in East 3.5 mph 3.5 mph 32 % 0.00 in
12:56 98.4 °F 61.6 °F 29.87 in SSE 3.5 mph 3.5 mph 30 % 0.00 in
13:01 98.5 °F 61.7 °F 29.87 in SE 1.2 mph 1.2 mph 30 % 0.00 in
13:06 99.1 °F 63.2 °F 29.86 in ESE 2.3 mph 2.3 mph 31 % 0.00 in
13:11 99.5 °F 65.3 °F 29.86 in SSE 1.0 mph 1.0 mph 33 % 0.00 in
13:16 99.8 °F 65.6 °F 29.86 in SE 2.3 mph 2.3 mph 33 % 0.00 in
13:22 99.8 °F 64.7 °F 29.86 in SSE 5.8 mph 5.8 mph 32 % 0.00 in
13:27 100.1 °F 61.1 °F 29.86 in South 3.5 mph 3.5 mph 28 % 0.00 in
13:32 100.3 °F 64.2 °F 29.85 in SSW 2.3 mph 2.3 mph 31 % 0.00 in
13:37 100.3 °F 64.2 °F 29.85 in South 4.0 mph 4.0 mph 31 % 0.00 in
13:42 100.1 °F 64.0 °F 29.85 in NW 3.5 mph 3.5 mph 31 % 0.00 in
13:47 99.7 °F 65.5 °F 29.85 in SW 3.5 mph 3.5 mph 33 % 0.00 in
13:52 100.2 °F 65.9 °F 29.85 in ESE 3.5 mph 3.5 mph 33 % 0.00 in
13:57 100.4 °F 64.3 °F 29.85 in NNE 2.3 mph 2.3 mph 31 % 0.00 in
14:03 100.2 °F 65.9 °F 29.84 in ENE 3.5 mph 3.5 mph 33 % 0.00 in
14:08 100.4 °F 64.3 °F 29.84 in SE 2.3 mph 2.3 mph 31 % 0.00 in
14:13 100.2 °F 65.0 °F 29.84 in NE 2.3 mph 2.3 mph 32 % 0.00 in
14:18 100.4 °F 65.2 °F 29.84 in East 2.3 mph 2.3 mph 32 % 0.00 in
14:23 100.7 °F 62.6 °F 29.84 in NNW 3.5 mph 3.5 mph 29 % 0.00 in
14:28 101.2 °F 65.9 °F 29.84 in NNW 1.2 mph 1.2 mph 32 % 0.00 in
14:33 101.5 °F 63.3 °F 29.84 in South 2.3 mph 2.3 mph 29 % 0.00 in
14:38 101.2 °F 65.0 °F 29.83 in NW 3.0 mph 3.0 mph 31 % 0.00 in
14:43 101.0 °F 64.8 °F 29.83 in SSE 2.3 mph 2.3 mph 31 % 0.00 in
14:48 100.9 °F 63.8 °F 29.83 in NW 3.0 mph 3.0 mph 30 % 0.00 in
14:53 101.3 °F 66.0 °F 29.83 in SE 3.5 mph 3.5 mph 32 % 0.00 in
14:58 101.8 °F 66.4 °F 29.83 in SE 3.5 mph 3.5 mph 32 % 0.00 in
15:03 101.6 °F 65.3 °F 29.83 in North 2.3 mph 2.3 mph 31 % 0.00 in
15:08 101.7 °F 65.4 °F 29.82 in SSE 2.3 mph 2.3 mph 31 % 0.00 in
15:13 101.6 °F 65.3 °F 29.82 in SE 2.3 mph 2.3 mph 31 % 0.00 in
15:18 102.1 °F 64.8 °F 29.82 in SSW 2.3 mph 2.3 mph 30 % 0.00 in
15:23 102.6 °F 66.2 °F 29.82 in West 1.2 mph 1.2 mph 31 % 0.00 in
15:28 103.0 °F 64.6 °F 29.82 in SSW 1.2 mph 1.2 mph 29 % 0.00 in
15:33 103.3 °F 63.9 °F 29.82 in SE 2.0 mph 2.0 mph 28 % 0.00 in
15:38 103.1 °F 64.7 °F 29.82 in WNW 1.2 mph 1.2 mph 29 % 0.00 in
15:43 103.0 °F 64.6 °F 29.81 in South 1.0 mph 1.0 mph 29 % 0.00 in
15:48 103.2 °F 65.8 °F 29.81 in SSE 2.3 mph 2.3 mph 30 % 0.00 in
15:53 103.2 °F 65.8 °F 29.81 in NE 2.3 mph 2.3 mph 30 % 0.00 in
15:58 103.7 °F 66.2 °F 29.81 in NW 1.2 mph 1.2 mph 30 % 0.00 in
16:03 103.6 °F 66.1 °F 29.81 in ESE 3.5 mph 3.5 mph 30 % 0.00 in
16:08 103.4 °F 63.9 °F 29.80 in West 2.3 mph 2.3 mph 28 % 0.00 in
16:13 103.0 °F 62.6 °F 29.80 in NNW 2.3 mph 2.3 mph 27 % 0.00 in
16:18 102.3 °F 64.0 °F 29.80 in NW 2.3 mph 2.3 mph 29 % 0.00 in
16:23 102.1 °F 64.8 °F 29.80 in NW 2.0 mph 2.0 mph 30 % 0.00 in
16:28 102.8 °F 63.4 °F 29.79 in NW 2.3 mph 2.3 mph 28 % 0.00 in
16:33 103.3 °F 65.8 °F 29.79 in Calm     30 % 0.00 in
16:43 103.8 °F 63.2 °F 29.79 in SSE 2.0 mph 2.0 mph 27 % 0.00 in
16:48 103.9 °F 64.4 °F 29.79 in SE 2.3 mph 2.3 mph 28 % 0.00 in
16:53 104.1 °F 66.5 °F 29.79 in ESE 1.0 mph 1.0 mph 30 % 0.00 in
16:58 104.6 °F 63.9 °F 29.78 in SE 2.3 mph 2.3 mph 27 % 0.00 in
17:03 104.5 °F 66.9 °F 29.78 in North 1.2 mph 1.2 mph 30 % 0.00 in
17:08 104.3 °F 66.7 °F 29.78 in SW 1.2 mph   30 % 0.00 in
17:13 104.4 °F 67.7 °F 29.78 in West 3.5 mph 3.5 mph 31 % 0.00 in
17:18 104.6 °F 67.9 °F 29.77 in North 1.2 mph 1.2 mph 31 % 0.00 in
17:24 104.9 °F 69.1 °F 29.77 in NNW 1.2 mph 1.2 mph 32 % 0.00 in
17:29 104.5 °F 67.8 °F 29.77 in NW 2.0 mph 2.0 mph 31 % 0.00 in
17:34 104.4 °F 66.8 °F 29.77 in SW 2.3 mph 2.3 mph 30 % 0.00 in
17:39 104.3 °F 68.6 °F 29.77 in NNE 2.3 mph 2.3 mph 32 % 0.00 in
17:44 104.4 °F 68.7 °F 29.77 in NNW 1.2 mph 1.2 mph 32 % 0.00 in
17:49 104.3 °F 67.6 °F 29.77 in NW 3.0 mph 3.0 mph 31 % 0.00 in
17:54 103.4 °F 66.9 °F 29.77 in WNW 3.5 mph 3.5 mph 31 % 0.00 in
17:59 103.0 °F 68.3 °F 29.77 in WSW 3.5 mph 3.5 mph 33 % 0.00 in
18:04 102.9 °F 67.4 °F 29.77 in WNW 3.5 mph 3.5 mph 32 % 0.00 in
18:09 102.6 °F 67.1 °F 29.77 in NW 2.3 mph 2.3 mph 32 % 0.00 in
18:14 102.0 °F 66.6 °F 29.77 in NW 3.5 mph 3.5 mph 32 % 0.00 in
18:19 101.9 °F 67.4 °F 29.77 in East 3.5 mph 3.5 mph 33 % 0.00 in
18:24 101.8 °F 66.4 °F 29.77 in NW 3.5 mph 3.5 mph 32 % 0.00 in
18:29 101.7 °F 66.3 °F 29.77 in NW 3.5 mph 3.5 mph 32 % 0.00 in
18:39 101.0 °F 68.3 °F 29.77 in NNW 3.5 mph 3.5 mph 35 % 0.00 in
18:44 100.9 °F 68.2 °F 29.77 in WNW 3.0 mph 3.0 mph 35 % 0.00 in
18:49 100.7 °F 68.0 °F 29.77 in NW 2.3 mph 2.3 mph 35 % 0.00 in
18:54 100.5 °F 67.9 °F 29.77 in NNE 3.0 mph 3.0 mph 35 % 0.00 in
18:59 100.1 °F 68.3 °F 29.77 in NW 3.5 mph 3.5 mph 36 % 0.00 in
19:04 99.6 °F 68.7 °F 29.77 in NW 3.5 mph 3.5 mph 37 % 0.00 in
19:09 99.1 °F 67.5 °F 29.77 in NW 3.5 mph 3.5 mph 36 % 0.00 in
19:14 98.8 °F 68.0 °F 29.77 in WNW 3.5 mph 3.5 mph 37 % 0.00 in
19:19 98.5 °F 68.5 °F 29.77 in WNW 2.3 mph 2.3 mph 38 % 0.00 in
19:24 97.9 °F 68.0 °F 29.77 in NW 2.3 mph 2.3 mph 38 % 0.00 in
19:29 97.4 °F 67.5 °F 29.77 in NW 1.2 mph 1.2 mph 38 % 0.00 in
19:34 97.1 °F 68.0 °F 29.77 in WNW 1.2 mph   39 % 0.00 in
19:39 96.8 °F 68.5 °F 29.78 in WNW 1.2 mph   40 % 0.00 in
19:44 96.4 °F 68.9 °F 29.77 in Calm     41 % 0.00 in
19:49 96.0 °F 69.2 °F 29.77 in NW 1.2 mph   42 % 0.00 in
19:54 95.6 °F 68.1 °F 29.77 in WNW 1.2 mph 1.2 mph 41 % 0.00 in
19:59 95.2 °F 68.5 °F 29.78 in Calm     42 % 0.00 in
20:04 94.8 °F 68.8 °F 29.77 in Calm   0.1 mph 43 % 0.00 in
20:09 94.4 °F 69.1 °F 29.78 in Calm     44 % 0.00 in
20:14 94.0 °F 68.8 °F 29.78 in Calm     44 % 0.00 in
20:19 93.5 °F 69.0 °F 29.78 in Calm     45 % 0.00 in
20:24 93.1 °F 68.6 °F 29.78 in Calm     45 % 0.00 in
20:25 93.1 °F 68.6 °F 29.78 in Calm     45 % 0.00 in
20:30 92.7 °F 69.5 °F 29.78 in Calm     47 % 0.00 in
20:35 92.1 °F 69.6 °F 29.78 in Calm     48 % 0.00 in
20:40 91.5 °F 70.2 °F 29.78 in Calm     50 % 0.00 in
20:45 91.0 °F 69.8 °F 29.78 in Calm     50 % 0.00 in
20:50 90.5 °F 69.3 °F 29.78 in Calm     50 % 0.00 in
20:55 90.1 °F 69.0 °F 29.78 in Calm     50 % 0.00 in
21:00 89.8 °F 69.3 °F 29.78 in Calm     51 % 0.00 in
21:05 89.6 °F 69.1 °F 29.78 in Calm     51 % 0.00 in
21:10 89.3 °F 69.9 °F 29.79 in Calm     53 % 0.00 in
21:15 89.0 °F 69.1 °F 29.79 in Calm     52 % 0.00 in
21:20 88.8 °F 71.6 °F 29.79 in Calm     57 % 0.00 in
21:30 88.4 °F 71.2 °F 29.79 in Calm     57 % 0.00 in
21:35 88.2 °F 70.5 °F 29.80 in Calm     56 % 0.00 in
21:40 88.1 °F 69.4 °F 29.80 in Calm     54 % 0.00 in
21:45 88.0 °F 70.9 °F 29.80 in Calm     57 % 0.00 in
21:50 87.8 °F 70.7 °F 29.80 in Calm     57 % 0.00 in
21:55 87.6 °F 70.5 °F 29.80 in Calm     57 % 0.00 in
22:00 87.5 °F 71.4 °F 29.80 in Calm     59 % 0.00 in
22:05 87.1 °F 70.5 °F 29.80 in Calm     58 % 0.00 in
22:10 86.7 °F 71.2 °F 29.80 in Calm     60 % 0.00 in
22:11 86.6 °F 71.1 °F 29.80 in Calm     60 % 0.00 in
22:16 85.8 °F 69.8 °F 29.80 in Calm     59 % 0.00 in
22:21 85.3 °F 68.3 °F 29.80 in Calm     57 % 0.00 in
22:26 85.1 °F 68.7 °F 29.80 in Calm     58 % 0.00 in
22:36 84.6 °F 68.7 °F 29.80 in Calm     59 % 0.00 in
22:41 84.6 °F 69.7 °F 29.80 in Calm     61 % 0.00 in
22:46 84.5 °F 68.1 °F 29.80 in Calm     58 % 0.00 in
22:51 84.3 °F 67.9 °F 29.80 in Calm     58 % 0.00 in
22:56 84.3 °F 69.4 °F 29.80 in Calm     61 % 0.00 in
23:01 84.0 °F 69.6 °F 29.80 in Calm     62 % 0.00 in
23:03 84.0 °F 70.0 °F 29.80 in Calm     63 % 0.00 in
23:09 83.7 °F 69.3 °F 29.80 in Calm     62 % 0.00 in
23:14 83.6 °F 70.1 °F 29.80 in Calm     64 % 0.00 in
23:19 83.2 °F 70.2 °F 29.80 in Calm     65 % 0.00 in
23:24 83.0 °F 69.6 °F 29.80 in Calm     64 % 0.00 in
23:29 83.0 °F 69.1 °F 29.80 in Calm     63 % 0.00 in
23:34 82.9 °F 69.0 °F 29.80 in Calm     63 % 0.00 in
23:39 82.7 °F 69.7 °F 29.80 in Calm     65 % 0.00 in
23:44 82.5 °F 70.0 °F 29.80 in Calm     66 % 0.00 in
23:49 82.3 °F 70.2 °F 29.80 in Calm     67 % 0.00 in
23:54 82.1 °F 70.5 °F 29.79 in Calm     68 % 0.00 in
23:59 81.9 °F 70.3 °F 29.79 in Calm     68 % 0.00 in
Park Place, Exeter, Tulare County, California, USA
Compliments of Weather Underground - 2.75 mb